Time,TemperatureF,DewpointF,PressureIn,WindDirection,WindDirectionDegrees,WindSpeedMPH,WindSpeedGustMPH,Humidity,HourlyPrecipIn,Conditions,Clouds,dailyrainin,SoftwareType,DateUTC
2013-05-14 00:02:00,39.7,20.1,30.06,North,-999,0.0,0.0,45,0.00,,,-99.99,FreeWX-Wi 1.02,2013-05-14 04:02:00,
2013-05-14 00:07:00,39.7,20.7,30.06,North,-999,0.0,0.0,46,0.00,,,-99.99,FreeWX-Wi 1.02,2013-05-14 04:07:00,
2013-05-14 00:12:00,39.7,20.7,30.06,North,-999,0.0,0.0,46,0.00,,,-99.99,FreeWX-Wi 1.02,2013-05-14 04:12:00,
2013-05-14 00:17:00,39.7,21.2,30.06,North,-999,0.0,0.0,47,0.00,,,-99.99,FreeWX-Wi 1.02,2013-05-14 04:17:00,
2013-05-14 00:22:00,39.6,23.4,30.06,North,-999,0.0,0.0,52,0.00,,,-99.99,FreeWX-Wi 1.02,2013-05-14 04:22:00,
2013-05-14 00:27:00,39.2,21.7,30.06,North,-999,0.0,0.0,49,0.00,,,-99.99,FreeWX-Wi 1.02,2013-05-14 04:27:00,
2013-05-14 00:32:00,38.7,22.1,30.06,North,-999,0.0,0.0,51,0.00,,,-99.99,FreeWX-Wi 1.02,2013-05-14 04:32:00,
2013-05-14 00:37:00,38.3,22.3,30.06,North,-999,0.0,0.0,52,0.00,,,-99.99,FreeWX-Wi 1.02,2013-05-14 04:37:00,
2013-05-14 00:42:00,38.3,23.2,30.06,North,-999,0.0,0.0,54,0.00,,,-99.99,FreeWX-Wi 1.02,2013-05-14 04:42:00,
2013-05-14 00:47:00,38.3,23.2,30.06,North,-999,0.0,0.0,54,0.00,,,-99.99,FreeWX-Wi 1.02,2013-05-14 04:47:00,
2013-05-14 00:52:00,38.1,23.0,30.06,North,-999,0.0,0.0,54,0.00,,,-99.99,FreeWX-Wi 1.02,2013-05-14 04:52:00,
2013-05-14 00:57:00,38.1,23.4,30.06,North,-999,0.0,0.0,55,0.00,,,-99.99,FreeWX-Wi 1.02,2013-05-14 04:57:00,
2013-05-14 01:02:00,38.1,23.4,30.06,North,-999,0.0,0.0,55,0.00,,,-99.99,FreeWX-Wi 1.02,2013-05-14 05:02:00,
2013-05-14 01:07:00,38.1,23.4,30.06,North,-999,0.0,0.0,55,0.00,,,-99.99,FreeWX-Wi 1.02,2013-05-14 05:07:00,
2013-05-14 01:12:00,38.1,23.4,30.06,North,-999,0.0,0.0,55,0.00,,,-99.99,FreeWX-Wi 1.02,2013-05-14 05:12:00,
2013-05-14 01:17:00,38.3,23.5,30.06,North,-999,0.0,0.0,55,0.00,,,-99.99,FreeWX-Wi 1.02,2013-05-14 05:17:00,
2013-05-14 01:22:00,38.5,24.1,30.06,North,-999,0.0,0.0,56,0.00,,,-99.99,FreeWX-Wi 1.02,2013-05-14 05:22:00,
2013-05-14 01:27:00,38.7,23.9,30.06,North,-999,0.0,0.0,55,0.00,,,-99.99,FreeWX-Wi 1.02,2013-05-14 05:27:00,
2013-05-14 01:32:00,38.8,24.1,30.06,North,-999,0.0,0.0,55,0.00,,,-99.99,FreeWX-Wi 1.02,2013-05-14 05:32:00,
2013-05-14 01:37:00,38.8,24.1,30.06,North,-999,0.0,0.0,55,0.00,,,-99.99,FreeWX-Wi 1.02,2013-05-14 05:37:00,
2013-05-14 01:42:00,39.0,24.3,30.06,North,-999,0.0,0.0,55,0.00,,,-99.99,FreeWX-Wi 1.02,2013-05-14 05:42:00,
2013-05-14 01:47:00,39.0,24.3,30.06,North,-999,0.0,0.0,55,0.00,,,-99.99,FreeWX-Wi 1.02,2013-05-14 05:47:00,
2013-05-14 01:52:00,39.0,23.7,30.06,North,-999,0.0,0.0,54,0.00,,,-99.99,FreeWX-Wi 1.02,2013-05-14 05:52:00,
2013-05-14 01:57:00,39.0,23.7,30.06,North,-999,0.0,0.0,54,0.00,,,-99.99,FreeWX-Wi 1.02,2013-05-14 05:57:00,
2013-05-14 02:02:00,39.2,23.9,30.06,North,-999,0.0,0.0,54,0.00,,,-99.99,FreeWX-Wi 1.02,2013-05-14 06:02:00,
2013-05-14 02:07:00,39.2,23.9,30.06,North,-999,0.0,0.0,54,0.00,,,-99.99,FreeWX-Wi 1.02,2013-05-14 06:07:00,
2013-05-14 02:12:00,39.2,23.9,30.06,North,-999,0.0,0.0,54,0.00,,,-99.99,FreeWX-Wi 1.02,2013-05-14 06:12:00,
2013-05-14 02:17:00,39.2,23.9,30.06,North,-999,0.0,0.0,54,0.00,,,-99.99,FreeWX-Wi 1.02,2013-05-14 06:17:00,
2013-05-14 02:22:00,39.2,23.9,30.06,North,-999,0.0,0.0,54,0.00,,,-99.99,FreeWX-Wi 1.02,2013-05-14 06:22:00,
2013-05-14 02:27:00,39.2,23.9,30.06,North,-999,0.0,0.0,54,0.00,,,-99.99,FreeWX-Wi 1.02,2013-05-14 06:27:00,
2013-05-14 02:32:00,39.2,23.9,30.06,North,-999,0.0,0.0,54,0.00,,,-99.99,FreeWX-Wi 1.02,2013-05-14 06:32:00,
2013-05-14 02:37:00,39.0,23.7,30.06,North,-999,0.0,0.0,54,0.00,,,-99.99,FreeWX-Wi 1.02,2013-05-14 06:37:00,
2013-05-14 02:42:00,39.2,23.9,30.06,North,-999,0.0,0.0,54,0.00,,,-99.99,FreeWX-Wi 1.02,2013-05-14 06:42:00,
2013-05-14 02:47:00,39.2,23.9,30.06,North,-999,0.0,0.0,54,0.00,,,-99.99,FreeWX-Wi 1.02,2013-05-14 06:47:00,
2013-05-14 02:52:00,39.4,24.1,30.06,North,-999,0.0,0.0,54,0.00,,,-99.99,FreeWX-Wi 1.02,2013-05-14 06:52:00,
2013-05-14 02:57:00,39.4,24.1,30.06,North,-999,0.0,0.0,54,0.00,,,-99.99,FreeWX-Wi 1.02,2013-05-14 06:57:00,
2013-05-14 03:02:00,39.6,24.3,30.06,North,-999,0.0,0.0,54,0.00,,,-99.99,FreeWX-Wi 1.02,2013-05-14 07:02:00,
2013-05-14 03:07:00,39.6,23.9,30.06,North,-999,0.0,0.0,53,0.00,,,-99.99,FreeWX-Wi 1.02,2013-05-14 07:07:00,
2013-05-14 03:12:00,39.7,24.4,30.06,North,-999,0.0,0.0,54,0.00,,,-99.99,FreeWX-Wi 1.02,2013-05-14 07:12:00,
2013-05-14 03:17:00,39.2,21.2,30.06,North,-999,0.0,0.0,48,0.00,,,-99.99,FreeWX-Wi 1.02,2013-05-14 07:17:00,
2013-05-14 03:22:00,38.7,22.6,30.06,North,-999,0.0,0.0,52,0.00,,,-99.99,FreeWX-Wi 1.02,2013-05-14 07:22:00,
2013-05-14 03:27:00,38.1,23.0,30.06,North,-999,0.0,0.0,54,0.00,,,-99.99,FreeWX-Wi 1.02,2013-05-14 07:27:00,
2013-05-14 03:32:00,37.6,22.8,30.06,North,-999,0.0,0.0,55,0.00,,,-99.99,FreeWX-Wi 1.02,2013-05-14 07:32:00,
2013-05-14 03:37:00,37.6,22.8,30.06,North,-999,0.0,0.0,55,0.00,,,-99.99,FreeWX-Wi 1.02,2013-05-14 07:37:00,
2013-05-14 03:42:00,37.6,22.8,30.06,North,-999,0.0,0.0,55,0.00,,,-99.99,FreeWX-Wi 1.02,2013-05-14 07:42:00,
2013-05-14 03:47:00,37.8,23.0,30.06,North,-999,0.0,0.0,55,0.00,,,-99.99,FreeWX-Wi 1.02,2013-05-14 07:47:00,
2013-05-14 03:52:00,37.6,22.5,30.06,North,-999,0.0,0.0,54,0.00,,,-99.99,FreeWX-Wi 1.02,2013-05-14 07:52:00,
2013-05-14 03:57:00,37.6,22.5,30.06,North,-999,0.0,0.0,54,0.00,,,-99.99,FreeWX-Wi 1.02,2013-05-14 07:57:00,
2013-05-14 04:02:00,37.4,22.6,30.06,North,-999,0.0,0.0,55,0.00,,,-99.99,FreeWX-Wi 1.02,2013-05-14 08:02:00,
2013-05-14 04:07:00,37.2,22.6,30.06,North,-999,0.0,0.0,55,0.00,,,-99.99,FreeWX-Wi 1.02,2013-05-14 08:07:00,
2013-05-14 04:12:00,37.2,23.0,30.06,North,-999,0.0,0.0,56,0.00,,,-99.99,FreeWX-Wi 1.02,2013-05-14 08:12:00,
2013-05-14 04:17:00,37.4,23.5,30.06,North,-999,0.0,0.0,57,0.00,,,-99.99,FreeWX-Wi 1.02,2013-05-14 08:17:00,
2013-05-14 04:22:00,37.4,23.2,30.06,North,-999,0.0,0.0,56,0.00,,,-99.99,FreeWX-Wi 1.02,2013-05-14 08:22:00,
2013-05-14 04:27:00,37.4,23.2,30.06,North,-999,0.0,0.0,56,0.00,,,-99.99,FreeWX-Wi 1.02,2013-05-14 08:27:00,
2013-05-14 04:32:00,37.2,23.4,30.06,North,-999,0.0,0.0,57,0.00,,,-99.99,FreeWX-Wi 1.02,2013-05-14 08:32:00,
2013-05-14 04:37:00,37.0,23.2,30.06,North,-999,0.0,0.0,57,0.00,,,-99.99,FreeWX-Wi 1.02,2013-05-14 08:37:00,
2013-05-14 04:42:00,36.9,23.0,30.06,North,-999,0.0,0.0,57,0.00,,,-99.99,FreeWX-Wi 1.02,2013-05-14 08:42:00,
2013-05-14 04:47:00,36.9,23.5,30.06,North,-999,0.0,0.0,58,0.00,,,-99.99,FreeWX-Wi 1.02,2013-05-14 08:47:00,
2013-05-14 04:52:00,36.7,23.4,30.06,North,-999,0.0,0.0,58,0.00,,,-99.99,FreeWX-Wi 1.02,2013-05-14 08:52:00,
2013-05-14 04:57:00,36.3,22.6,30.06,North,-999,0.0,0.0,57,0.00,,,-99.99,FreeWX-Wi 1.02,2013-05-14 08:57:00,
2013-05-14 05:02:00,36.1,22.5,30.06,North,-999,0.0,0.0,57,0.00,,,-99.99,FreeWX-Wi 1.02,2013-05-14 09:02:00,
2013-05-14 05:07:00,36.5,23.5,30.06,North,-999,0.0,0.0,59,0.00,,,-99.99,FreeWX-Wi 1.02,2013-05-14 09:07:00,
2013-05-14 05:12:00,36.7,23.7,30.06,North,-999,0.0,0.0,59,0.00,,,-99.99,FreeWX-Wi 1.02,2013-05-14 09:12:00,
2013-05-14 05:17:00,36.7,23.7,30.06,North,-999,0.0,0.0,59,0.00,,,-99.99,FreeWX-Wi 1.02,2013-05-14 09:17:00,
2013-05-14 05:22:00,36.7,24.1,30.06,North,-999,0.0,0.0,60,0.00,,,-99.99,FreeWX-Wi 1.02,2013-05-14 09:22:00,
2013-05-14 05:27:00,36.3,23.4,30.06,North,-999,0.0,0.0,59,0.00,,,-99.99,FreeWX-Wi 1.02,2013-05-14 09:27:00,
2013-05-14 05:32:00,36.0,23.0,30.06,North,-999,0.0,0.0,59,0.00,,,-99.99,FreeWX-Wi 1.02,2013-05-14 09:32:00,
2013-05-14 05:37:00,35.8,22.8,30.06,North,-999,0.0,0.0,59,0.00,,,-99.99,FreeWX-Wi 1.02,2013-05-14 09:37:00,
2013-05-14 05:42:00,35.4,23.0,30.06,North,-999,0.0,0.0,60,0.00,,,-99.99,FreeWX-Wi 1.02,2013-05-14 09:42:00,
2013-05-14 05:47:00,35.4,23.0,30.06,North,-999,0.0,0.0,60,0.00,,,-99.99,FreeWX-Wi 1.02,2013-05-14 09:47:00,
2013-05-14 05:52:00,35.8,23.7,30.09,North,-999,0.0,0.0,61,0.00,,,-99.99,FreeWX-Wi 1.02,2013-05-14 09:52:00,
2013-05-14 05:57:00,36.3,23.7,30.09,North,-999,0.0,0.0,60,0.00,,,-99.99,FreeWX-Wi 1.02,2013-05-14 09:57:00,
2013-05-14 06:02:00,36.7,23.7,30.09,North,-999,0.0,0.0,59,0.00,,,-99.99,FreeWX-Wi 1.02,2013-05-14 10:02:00,
2013-05-14 06:07:00,36.9,23.9,30.09,North,-999,0.0,0.0,59,0.00,,,-99.99,FreeWX-Wi 1.02,2013-05-14 10:07:00,
2013-05-14 06:12:00,37.4,24.4,30.09,North,-999,0.0,0.0,59,0.00,,,-99.99,FreeWX-Wi 1.02,2013-05-14 10:12:00,
2013-05-14 06:17:00,37.8,23.5,30.09,North,-999,0.0,0.0,56,0.00,,,-99.99,FreeWX-Wi 1.02,2013-05-14 10:17:00,
2013-05-14 06:22:00,38.1,23.9,30.09,North,-999,0.0,0.0,56,0.00,,,-99.99,FreeWX-Wi 1.02,2013-05-14 10:22:00,
2013-05-14 06:27:00,38.8,24.4,30.09,North,-999,0.0,0.0,56,0.00,,,-99.99,FreeWX-Wi 1.02,2013-05-14 10:27:00,
2013-05-14 06:32:00,39.7,24.4,30.09,North,-999,0.0,0.0,54,0.00,,,-99.99,FreeWX-Wi 1.02,2013-05-14 10:32:00,
2013-05-14 06:37:00,40.5,20.8,30.09,North,-999,0.0,0.0,45,0.00,,,-99.99,FreeWX-Wi 1.02,2013-05-14 10:37:00,
2013-05-14 06:42:00,41.2,20.5,30.09,North,-999,0.0,0.0,43,0.00,,,-99.99,FreeWX-Wi 1.02,2013-05-14 10:42:00,
2013-05-14 06:47:00,42.1,20.1,30.09,North,-999,0.0,0.0,41,0.00,,,-99.99,FreeWX-Wi 1.02,2013-05-14 10:47:00,
2013-05-14 06:52:00,43.2,17.4,30.09,North,-999,0.0,0.0,35,0.00,,,-99.99,FreeWX-Wi 1.02,2013-05-14 10:52:00,
2013-05-14 06:57:00,43.9,12.9,30.09,North,-999,0.0,0.0,28,0.00,,,-99.99,FreeWX-Wi 1.02,2013-05-14 10:57:00,
2013-05-14 07:02:00,44.6,12.7,30.09,North,-999,0.0,0.0,27,0.00,,,-99.99,FreeWX-Wi 1.02,2013-05-14 11:02:00,
2013-05-14 07:07:00,46.6,11.7,30.09,North,-999,0.0,0.0,24,0.00,,,-99.99,FreeWX-Wi 1.02,2013-05-14 11:07:00,
2013-05-14 07:12:00,46.0,11.3,30.09,North,-999,0.0,0.0,24,0.00,,,-99.99,FreeWX-Wi 1.02,2013-05-14 11:12:00,
2013-05-14 07:17:00,45.5,10.8,30.09,North,-999,0.0,0.0,24,0.00,,,-99.99,FreeWX-Wi 1.02,2013-05-14 11:17:00,
2013-05-14 07:22:00,45.3,10.8,30.09,North,-999,0.0,0.0,24,0.00,,,-99.99,FreeWX-Wi 1.02,2013-05-14 11:22:00,
2013-05-14 07:27:00,45.5,10.8,30.09,North,-999,0.0,0.0,24,0.00,,,-99.99,FreeWX-Wi 1.02,2013-05-14 11:27:00,
2013-05-14 07:32:00,47.5,11.5,30.09,North,-999,0.0,0.0,23,0.00,,,-99.99,FreeWX-Wi 1.02,2013-05-14 11:32:00,
2013-05-14 07:37:00,47.5,11.5,30.09,North,-999,0.0,2.7,23,0.00,,,-99.99,FreeWX-Wi 1.02,2013-05-14 11:37:00,
2013-05-14 07:42:00,47.1,11.3,30.09,North,-999,0.0,4.0,23,0.00,,,-99.99,FreeWX-Wi 1.02,2013-05-14 11:42:00,
2013-05-14 07:47:00,47.7,11.7,30.09,North,-999,0.0,3.6,23,0.00,,,-99.99,FreeWX-Wi 1.02,2013-05-14 11:47:00,
2013-05-14 07:52:00,49.1,12.9,30.09,NNW,346,1.0,4.5,23,0.00,,,-99.99,FreeWX-Wi 1.02,2013-05-14 11:52:00,
2013-05-14 07:57:00,48.9,12.7,30.09,North,350,1.0,3.6,23,0.00,,,-99.99,FreeWX-Wi 1.02,2013-05-14 11:57:00,
2013-05-14 08:02:00,48.7,12.6,30.09,North,-999,0.0,0.0,23,0.00,,,-99.99,FreeWX-Wi 1.02,2013-05-14 12:02:00,
2013-05-14 08:07:00,48.6,12.4,30.09,North,-999,0.0,2.7,23,0.00,,,-99.99,FreeWX-Wi 1.02,2013-05-14 12:07:00,
2013-05-14 08:12:00,48.6,12.4,30.09,North,-999,0.0,4.0,23,0.00,,,-99.99,FreeWX-Wi 1.02,2013-05-14 12:12:00,
2013-05-14 08:17:00,49.3,13.1,30.09,North,354,1.0,2.7,23,0.00,,,-99.99,FreeWX-Wi 1.02,2013-05-14 12:17:00,
2013-05-14 08:22:00,49.6,13.5,30.09,North,-999,0.0,0.0,23,0.00,,,-99.99,FreeWX-Wi 1.02,2013-05-14 12:22:00,
2013-05-14 08:27:00,48.9,12.7,30.09,North,-999,0.0,3.1,23,0.00,,,-99.99,FreeWX-Wi 1.02,2013-05-14 12:27:00,
2013-05-14 08:32:00,49.6,13.5,30.09,North,351,1.0,3.6,23,0.00,,,-99.99,FreeWX-Wi 1.02,2013-05-14 12:32:00,
2013-05-14 08:37:00,50.2,13.8,30.09,NNW,345,1.0,2.7,23,0.00,,,-99.99,FreeWX-Wi 1.02,2013-05-14 12:37:00,
2013-05-14 08:42:00,51.4,14.9,30.09,North,-999,0.0,0.0,23,0.00,,,-99.99,FreeWX-Wi 1.02,2013-05-14 12:42:00,
2013-05-14 08:47:00,52.0,14.4,30.09,North,-999,0.0,0.0,22,0.00,,,-99.99,FreeWX-Wi 1.02,2013-05-14 12:47:00,
2013-05-14 08:52:00,52.7,14.9,30.09,North,-999,0.0,0.0,22,0.00,,,-99.99,FreeWX-Wi 1.02,2013-05-14 12:52:00,
2013-05-14 08:57:00,53.2,15.4,30.09,North,-999,0.0,0.0,22,0.00,,,-99.99,FreeWX-Wi 1.02,2013-05-14 12:57:00,
2013-05-14 09:02:00,53.6,15.6,30.09,North,-999,0.0,0.0,22,0.00,,,-99.99,FreeWX-Wi 1.02,2013-05-14 13:02:00,
2013-05-14 09:07:00,53.1,15.3,30.09,North,-999,0.0,3.6,22,0.00,,,-99.99,FreeWX-Wi 1.02,2013-05-14 13:07:00,
2013-05-14 09:12:00,52.9,15.1,30.09,North,-999,0.0,2.7,22,0.00,,,-99.99,FreeWX-Wi 1.02,2013-05-14 13:12:00,
2013-05-14 09:17:00,52.7,14.9,30.09,North,-999,0.0,3.1,22,0.00,,,-99.99,FreeWX-Wi 1.02,2013-05-14 13:17:00,
2013-05-14 09:22:00,54.1,16.2,30.06,North,-999,0.0,4.0,22,0.00,,,-99.99,FreeWX-Wi 1.02,2013-05-14 13:22:00,
2013-05-14 09:27:00,55.8,16.5,30.06,NNW,343,1.0,3.6,21,0.00,,,-99.99,FreeWX-Wi 1.02,2013-05-14 13:27:00,
2013-05-14 09:33:00,56.3,16.9,30.06,NNW,343,1.0,4.0,21,0.00,,,-99.99,FreeWX-Wi 1.02,2013-05-14 13:33:00,
2013-05-14 09:38:00,55.9,16.5,30.06,NNW,339,1.0,4.0,21,0.00,,,-99.99,FreeWX-Wi 1.02,2013-05-14 13:38:00,
2013-05-14 09:43:00,57.7,18.1,30.06,NNW,327,1.0,2.2,21,0.00,,,-99.99,FreeWX-Wi 1.02,2013-05-14 13:43:00,
2013-05-14 09:48:00,57.9,18.3,30.06,NW,320,1.0,0.0,21,0.00,,,-99.99,FreeWX-Wi 1.02,2013-05-14 13:48:00,
2013-05-14 09:53:00,56.3,16.9,30.06,North,-999,0.0,4.0,21,0.00,,,-99.99,FreeWX-Wi 1.02,2013-05-14 13:53:00,
2013-05-14 09:58:00,56.3,16.9,30.06,North,-999,0.0,2.2,21,0.00,,,-99.99,FreeWX-Wi 1.02,2013-05-14 13:58:00,
2013-05-14 10:03:00,56.3,16.9,30.06,North,-999,0.0,3.1,21,0.00,,,-99.99,FreeWX-Wi 1.02,2013-05-14 14:03:00,
2013-05-14 10:08:00,56.5,17.1,30.06,North,-999,0.0,4.0,21,0.00,,,-99.99,FreeWX-Wi 1.02,2013-05-14 14:08:00,
2013-05-14 10:13:00,56.3,16.9,30.06,North,1,1.0,3.1,21,0.00,,,-99.99,FreeWX-Wi 1.02,2013-05-14 14:13:00,
2013-05-14 10:18:00,56.5,17.1,30.06,North,11,1.0,4.0,21,0.00,,,-99.99,FreeWX-Wi 1.02,2013-05-14 14:18:00,
2013-05-14 10:23:00,56.3,16.9,30.06,NNE,13,1.0,3.1,21,0.00,,,-99.99,FreeWX-Wi 1.02,2013-05-14 14:23:00,
2013-05-14 10:28:00,56.3,16.9,30.06,NNE,12,1.0,0.0,21,0.00,,,-99.99,FreeWX-Wi 1.02,2013-05-14 14:28:00,
2013-05-14 10:33:00,57.0,17.4,30.06,NNE,18,1.0,3.1,21,0.00,,,-99.99,FreeWX-Wi 1.02,2013-05-14 14:33:00,
2013-05-14 10:38:00,57.0,17.4,30.06,North,9,1.0,4.0,21,0.00,,,-99.99,FreeWX-Wi 1.02,2013-05-14 14:38:00,
2013-05-14 10:43:00,57.4,17.8,30.06,North,7,1.0,4.0,21,0.00,,,-99.99,FreeWX-Wi 1.02,2013-05-14 14:43:00,
2013-05-14 10:48:00,58.3,18.5,30.06,North,-999,0.0,2.7,21,0.00,,,-99.99,FreeWX-Wi 1.02,2013-05-14 14:48:00,
2013-05-14 10:53:00,60.4,20.3,30.06,NNW,346,1.0,3.1,21,0.00,,,-99.99,FreeWX-Wi 1.02,2013-05-14 14:53:00,
2013-05-14 10:58:00,57.6,18.0,30.06,North,1,1.0,3.6,21,0.00,,,-99.99,FreeWX-Wi 1.02,2013-05-14 14:58:00,
2013-05-14 11:03:00,58.6,18.9,30.06,North,0,1.0,2.7,21,0.00,,,-99.99,FreeWX-Wi 1.02,2013-05-14 15:03:00,
2013-05-14 11:08:00,58.8,19.0,30.06,North,1,1.0,4.9,21,0.00,,,-99.99,FreeWX-Wi 1.02,2013-05-14 15:08:00,
2013-05-14 11:13:00,59.2,19.2,30.06,North,-999,0.0,3.1,21,0.00,,,-99.99,FreeWX-Wi 1.02,2013-05-14 15:13:00,
2013-05-14 11:18:00,60.8,19.4,30.06,NNW,348,1.0,4.0,20,0.00,,,-99.99,FreeWX-Wi 1.02,2013-05-14 15:18:00,
2013-05-14 11:23:00,60.3,20.1,30.06,North,4,1.0,3.6,21,0.00,,,-99.99,FreeWX-Wi 1.02,2013-05-14 15:23:00,
2013-05-14 11:28:00,58.6,18.9,30.06,North,352,1.0,3.6,21,0.00,,,-99.99,FreeWX-Wi 1.02,2013-05-14 15:28:00,
2013-05-14 11:33:00,59.0,19.2,30.06,North,3,1.0,3.6,21,0.00,,,-99.99,FreeWX-Wi 1.02,2013-05-14 15:33:00,
2013-05-14 11:38:00,59.7,19.8,30.06,NNE,14,1.0,3.6,21,0.00,,,-99.99,FreeWX-Wi 1.02,2013-05-14 15:38:00,
2013-05-14 11:43:00,61.2,19.8,30.06,NNE,19,1.0,0.0,20,0.00,,,-99.99,FreeWX-Wi 1.02,2013-05-14 15:43:00,
2013-05-14 11:48:00,60.6,20.5,30.06,North,351,1.0,4.0,21,0.00,,,-99.99,FreeWX-Wi 1.02,2013-05-14 15:48:00,
2013-05-14 11:53:00,58.8,19.0,30.06,North,-999,0.0,0.0,21,0.00,,,-99.99,FreeWX-Wi 1.02,2013-05-14 15:53:00,
2013-05-14 11:58:00,57.6,18.0,30.06,North,-999,0.0,3.1,21,0.00,,,-99.99,FreeWX-Wi 1.02,2013-05-14 15:58:00,
2013-05-14 12:03:00,57.2,17.6,30.06,North,-999,0.0,0.0,21,0.00,,,-99.99,FreeWX-Wi 1.02,2013-05-14 16:03:00,
2013-05-14 12:08:00,57.9,18.3,30.06,North,-999,0.0,0.0,21,0.00,,,-99.99,FreeWX-Wi 1.02,2013-05-14 16:08:00,
2013-05-14 12:13:00,60.1,19.9,30.06,North,-999,0.0,3.6,21,0.00,,,-99.99,FreeWX-Wi 1.02,2013-05-14 16:13:00,
2013-05-14 12:18:00,59.2,19.2,30.06,North,-999,0.0,2.2,21,0.00,,,-99.99,FreeWX-Wi 1.02,2013-05-14 16:18:00,
2013-05-14 12:23:00,58.5,18.7,30.06,North,-999,0.0,0.0,21,0.00,,,-99.99,FreeWX-Wi 1.02,2013-05-14 16:23:00,
2013-05-14 12:28:00,57.9,18.3,30.06,North,-999,0.0,0.0,21,0.00,,,-99.99,FreeWX-Wi 1.02,2013-05-14 16:28:00,
2013-05-14 12:33:00,57.6,18.0,30.06,North,-999,0.0,3.6,21,0.00,,,-99.99,FreeWX-Wi 1.02,2013-05-14 16:33:00,
2013-05-14 12:38:00,57.7,18.1,30.06,North,-999,0.0,3.6,21,0.00,,,-99.99,FreeWX-Wi 1.02,2013-05-14 16:38:00,
2013-05-14 12:43:00,57.7,18.1,30.06,North,-999,0.0,2.7,21,0.00,,,-99.99,FreeWX-Wi 1.02,2013-05-14 16:43:00,
2013-05-14 12:48:00,57.9,18.3,30.06,North,-999,0.0,0.0,21,0.00,,,-99.99,FreeWX-Wi 1.02,2013-05-14 16:48:00,
2013-05-14 12:53:00,57.9,18.3,30.06,North,-999,0.0,2.7,21,0.00,,,-99.99,FreeWX-Wi 1.02,2013-05-14 16:53:00,
2013-05-14 12:58:00,58.3,18.5,30.06,North,-999,0.0,2.7,21,0.00,,,-99.99,FreeWX-Wi 1.02,2013-05-14 16:58:00,
2013-05-14 13:03:00,58.1,18.3,30.06,North,-999,0.0,4.0,21,0.00,,,-99.99,FreeWX-Wi 1.02,2013-05-14 17:03:00,
2013-05-14 13:08:00,58.1,18.3,30.06,North,-999,0.0,3.6,21,0.00,,,-99.99,FreeWX-Wi 1.02,2013-05-14 17:08:00,
2013-05-14 13:13:00,58.1,18.3,30.06,North,-999,0.0,3.6,21,0.00,,,-99.99,FreeWX-Wi 1.02,2013-05-14 17:13:00,
2013-05-14 13:18:00,58.5,18.7,30.06,North,-999,0.0,0.0,21,0.00,,,-99.99,FreeWX-Wi 1.02,2013-05-14 17:18:00,
2013-05-14 13:23:00,58.5,18.7,30.06,North,-999,0.0,3.1,21,0.00,,,-99.99,FreeWX-Wi 1.02,2013-05-14 17:23:00,
2013-05-14 13:28:00,57.9,18.3,30.06,North,-999,0.0,2.7,21,0.00,,,-99.99,FreeWX-Wi 1.02,2013-05-14 17:28:00,
2013-05-14 13:33:00,57.9,18.3,30.06,North,-999,0.0,4.9,21,0.00,,,-99.99,FreeWX-Wi 1.02,2013-05-14 17:33:00,
2013-05-14 13:38:00,58.5,18.7,30.06,North,-999,0.0,3.6,21,0.00,,,-99.99,FreeWX-Wi 1.02,2013-05-14 17:38:00,
2013-05-14 13:43:00,58.3,18.5,30.06,North,-999,0.0,4.0,21,0.00,,,-99.99,FreeWX-Wi 1.02,2013-05-14 17:43:00,
2013-05-14 13:48:00,57.4,17.8,30.06,North,-999,0.0,5.4,21,0.00,,,-99.99,FreeWX-Wi 1.02,2013-05-14 17:48:00,
2013-05-14 13:53:00,57.0,17.4,30.06,North,-999,0.0,4.0,21,0.00,,,-99.99,FreeWX-Wi 1.02,2013-05-14 17:53:00,
2013-05-14 13:58:00,57.7,18.1,30.06,North,-999,0.0,4.0,21,0.00,,,-99.99,FreeWX-Wi 1.02,2013-05-14 17:58:00,
2013-05-14 14:03:00,58.6,18.9,30.06,North,-999,0.0,4.0,21,0.00,,,-99.99,FreeWX-Wi 1.02,2013-05-14 18:03:00,
2013-05-14 14:08:00,58.6,18.9,30.06,East,98,1.0,3.6,21,0.00,,,-99.99,FreeWX-Wi 1.02,2013-05-14 18:08:00,
2013-05-14 14:13:00,58.8,19.0,30.06,East,96,1.0,3.1,21,0.00,,,-99.99,FreeWX-Wi 1.02,2013-05-14 18:13:00,
2013-05-14 14:18:00,58.6,18.9,30.06,North,-999,0.0,0.0,21,0.00,,,-99.99,FreeWX-Wi 1.02,2013-05-14 18:18:00,
2013-05-14 14:23:00,57.6,18.0,30.06,ENE,71,1.0,3.6,21,0.00,,,-99.99,FreeWX-Wi 1.02,2013-05-14 18:23:00,
2013-05-14 14:28:00,57.2,17.6,30.06,NNE,16,1.0,3.1,21,0.00,,,-99.99,FreeWX-Wi 1.02,2013-05-14 18:28:00,
2013-05-14 14:33:00,57.0,17.4,30.06,North,-999,0.0,2.7,21,0.00,,,-99.99,FreeWX-Wi 1.02,2013-05-14 18:33:00,
2013-05-14 14:38:00,57.7,18.1,30.06,North,-999,0.0,5.4,21,0.00,,,-99.99,FreeWX-Wi 1.02,2013-05-14 18:38:00,
2013-05-14 14:43:00,58.1,18.3,30.06,North,-999,0.0,4.0,21,0.00,,,-99.99,FreeWX-Wi 1.02,2013-05-14 18:43:00,
2013-05-14 14:48:00,57.6,18.0,30.03,NE,43,1.0,2.7,21,0.00,,,-99.99,FreeWX-Wi 1.02,2013-05-14 18:48:00,
2013-05-14 14:53:00,57.0,17.4,30.03,North,-999,0.0,2.2,21,0.00,,,-99.99,FreeWX-Wi 1.02,2013-05-14 18:53:00,
2013-05-14 14:58:00,56.7,17.2,30.03,North,-999,0.0,0.0,21,0.00,,,-99.99,FreeWX-Wi 1.02,2013-05-14 18:58:00,
2013-05-14 15:03:00,56.7,17.2,30.03,North,-999,0.0,0.0,21,0.00,,,-99.99,FreeWX-Wi 1.02,2013-05-14 19:03:00,
2013-05-14 15:08:00,56.8,17.4,30.03,North,-999,0.0,0.0,21,0.00,,,-99.99,FreeWX-Wi 1.02,2013-05-14 19:08:00,
2013-05-14 15:13:00,57.0,17.4,30.03,North,-999,0.0,0.0,21,0.00,,,-99.99,FreeWX-Wi 1.02,2013-05-14 19:13:00,
2013-05-14 15:18:00,57.0,17.4,30.03,North,-999,0.0,2.7,21,0.00,,,-99.99,FreeWX-Wi 1.02,2013-05-14 19:18:00,
2013-05-14 15:23:00,57.0,17.4,30.03,North,-999,0.0,3.1,21,0.00,,,-99.99,FreeWX-Wi 1.02,2013-05-14 19:23:00,
2013-05-14 15:28:00,57.6,18.0,30.03,North,-999,0.0,2.7,21,0.00,,,-99.99,FreeWX-Wi 1.02,2013-05-14 19:28:00,
2013-05-14 15:33:00,57.7,18.1,30.03,North,-999,0.0,3.1,21,0.00,,,-99.99,FreeWX-Wi 1.02,2013-05-14 19:33:00,
2013-05-14 15:38:00,57.6,18.0,30.03,North,-999,0.0,2.7,21,0.00,,,-99.99,FreeWX-Wi 1.02,2013-05-14 19:38:00,
2013-05-14 15:43:00,57.2,17.6,30.03,North,-999,0.0,2.2,21,0.00,,,-99.99,FreeWX-Wi 1.02,2013-05-14 19:43:00,
2013-05-14 15:48:00,57.2,17.6,30.03,North,-999,0.0,0.0,21,0.00,,,-99.99,FreeWX-Wi 1.02,2013-05-14 19:48:00,
2013-05-14 15:53:00,57.6,18.0,30.03,North,-999,0.0,2.2,21,0.00,,,-99.99,FreeWX-Wi 1.02,2013-05-14 19:53:00,
2013-05-14 15:58:00,57.9,18.3,30.03,North,-999,0.0,0.0,21,0.00,,,-99.99,FreeWX-Wi 1.02,2013-05-14 19:58:00,
2013-05-14 16:03:00,57.4,17.8,30.03,North,-999,0.0,0.0,21,0.00,,,-99.99,FreeWX-Wi 1.02,2013-05-14 20:03:00,
2013-05-14 16:08:00,56.8,17.4,30.03,North,-999,0.0,0.0,21,0.00,,,-99.99,FreeWX-Wi 1.02,2013-05-14 20:08:00,
2013-05-14 16:13:00,56.7,17.2,30.03,North,-999,0.0,0.0,21,0.00,,,-99.99,FreeWX-Wi 1.02,2013-05-14 20:13:00,
2013-05-14 16:18:00,56.5,17.1,30.03,North,-999,0.0,3.1,21,0.00,,,-99.99,FreeWX-Wi 1.02,2013-05-14 20:18:00,
2013-05-14 16:23:00,56.1,16.7,30.03,North,-999,0.0,0.0,21,0.00,,,-99.99,FreeWX-Wi 1.02,2013-05-14 20:23:00,
2013-05-14 16:28:00,55.9,16.5,30.03,North,-999,0.0,0.0,21,0.00,,,-99.99,FreeWX-Wi 1.02,2013-05-14 20:28:00,
2013-05-14 16:33:00,56.1,16.7,30.03,North,-999,0.0,0.0,21,0.00,,,-99.99,FreeWX-Wi 1.02,2013-05-14 20:33:00,
2013-05-14 16:38:00,56.1,16.7,30.03,North,-999,0.0,2.7,21,0.00,,,-99.99,FreeWX-Wi 1.02,2013-05-14 20:38:00,
2013-05-14 16:43:00,56.3,16.9,30.03,North,-999,0.0,0.0,21,0.00,,,-99.99,FreeWX-Wi 1.02,2013-05-14 20:43:00,
2013-05-14 16:49:00,56.5,17.1,30.03,North,-999,0.0,3.6,21,0.00,,,-99.99,FreeWX-Wi 1.02,2013-05-14 20:49:00,
2013-05-14 16:54:00,56.3,16.9,30.03,North,-999,0.0,3.1,21,0.00,,,-99.99,FreeWX-Wi 1.02,2013-05-14 20:54:00,
2013-05-14 16:59:00,56.3,16.9,30.03,North,-999,0.0,0.0,21,0.00,,,-99.99,FreeWX-Wi 1.02,2013-05-14 20:59:00,
2013-05-14 17:04:00,56.5,17.1,30.00,North,-999,0.0,0.0,21,0.00,,,-99.99,FreeWX-Wi 1.02,2013-05-14 21:04:00,
2013-05-14 17:09:00,56.7,17.2,30.00,North,-999,0.0,3.6,21,0.00,,,-99.99,FreeWX-Wi 1.02,2013-05-14 21:09:00,
2013-05-14 17:14:00,56.8,17.4,30.00,North,-999,0.0,3.1,21,0.00,,,-99.99,FreeWX-Wi 1.02,2013-05-14 21:14:00,
2013-05-14 17:19:00,56.8,17.4,30.00,North,-999,0.0,3.1,21,0.00,,,-99.99,FreeWX-Wi 1.02,2013-05-14 21:19:00,
2013-05-14 17:24:00,56.8,17.4,30.00,North,-999,0.0,0.0,21,0.00,,,-99.99,FreeWX-Wi 1.02,2013-05-14 21:24:00,
2013-05-14 17:29:00,57.0,17.4,30.00,North,-999,0.0,0.0,21,0.00,,,-99.99,FreeWX-Wi 1.02,2013-05-14 21:29:00,
2013-05-14 17:34:00,56.8,17.4,30.03,North,-999,0.0,0.0,21,0.00,,,-99.99,FreeWX-Wi 1.02,2013-05-14 21:34:00,
2013-05-14 17:39:00,56.7,17.2,30.03,North,-999,0.0,0.0,21,0.00,,,-99.99,FreeWX-Wi 1.02,2013-05-14 21:39:00,
2013-05-14 17:44:00,56.7,17.2,30.03,North,-999,0.0,0.0,21,0.00,,,-99.99,FreeWX-Wi 1.02,2013-05-14 21:44:00,
2013-05-14 17:49:00,56.5,17.1,30.00,North,-999,0.0,0.0,21,0.00,,,-99.99,FreeWX-Wi 1.02,2013-05-14 21:49:00,
2013-05-14 17:54:00,56.8,17.4,30.00,North,-999,0.0,0.0,21,0.00,,,-99.99,FreeWX-Wi 1.02,2013-05-14 21:54:00,
2013-05-14 17:59:00,56.8,17.4,30.00,North,-999,0.0,0.0,21,0.00,,,-99.99,FreeWX-Wi 1.02,2013-05-14 21:59:00,
2013-05-14 18:04:00,56.8,17.4,30.00,North,-999,0.0,0.0,21,0.00,,,-99.99,FreeWX-Wi 1.02,2013-05-14 22:04:00,
2013-05-14 18:09:00,56.7,17.2,30.00,North,-999,0.0,0.0,21,0.00,,,-99.99,FreeWX-Wi 1.02,2013-05-14 22:09:00,
2013-05-14 18:14:00,56.5,17.1,30.00,North,-999,0.0,0.0,21,0.00,,,-99.99,FreeWX-Wi 1.02,2013-05-14 22:14:00,
2013-05-14 18:19:00,56.5,17.1,30.00,North,-999,0.0,0.0,21,0.00,,,-99.99,FreeWX-Wi 1.02,2013-05-14 22:19:00,
2013-05-14 18:24:00,56.3,16.9,30.00,North,-999,0.0,0.0,21,0.00,,,-99.99,FreeWX-Wi 1.02,2013-05-14 22:24:00,
2013-05-14 18:29:00,56.3,16.9,30.00,North,-999,0.0,0.0,21,0.00,,,-99.99,FreeWX-Wi 1.02,2013-05-14 22:29:00,
2013-05-14 18:34:00,56.1,16.7,30.00,North,-999,0.0,0.0,21,0.00,,,-99.99,FreeWX-Wi 1.02,2013-05-14 22:34:00,
2013-05-14 18:39:00,55.9,16.5,30.00,North,-999,0.0,2.7,21,0.00,,,-99.99,FreeWX-Wi 1.02,2013-05-14 22:39:00,
2013-05-14 18:44:00,55.9,16.5,30.00,North,-999,0.0,0.0,21,0.00,,,-99.99,FreeWX-Wi 1.02,2013-05-14 22:44:00,
2013-05-14 18:49:00,55.8,16.5,30.03,North,-999,0.0,0.0,21,0.00,,,-99.99,FreeWX-Wi 1.02,2013-05-14 22:49:00,
2013-05-14 18:54:00,55.4,16.2,30.03,North,-999,0.0,0.0,21,0.00,,,-99.99,FreeWX-Wi 1.02,2013-05-14 22:54:00,
2013-05-14 18:59:00,55.0,16.9,30.03,North,-999,0.0,0.0,22,0.00,,,-99.99,FreeWX-Wi 1.02,2013-05-14 22:59:00,
2013-05-14 19:04:00,54.5,16.5,30.03,North,-999,0.0,0.0,22,0.00,,,-99.99,FreeWX-Wi 1.02,2013-05-14 23:04:00,
2013-05-14 19:09:00,54.3,16.3,30.03,North,-999,0.0,0.0,22,0.00,,,-99.99,FreeWX-Wi 1.02,2013-05-14 23:09:00,
2013-05-14 19:14:00,54.0,16.0,30.03,North,-999,0.0,0.0,22,0.00,,,-99.99,FreeWX-Wi 1.02,2013-05-14 23:14:00,
2013-05-14 19:19:00,53.6,15.6,30.03,North,-999,0.0,0.0,22,0.00,,,-99.99,FreeWX-Wi 1.02,2013-05-14 23:19:00,
2013-05-14 19:24:00,53.2,15.4,30.03,North,-999,0.0,0.0,22,0.00,,,-99.99,FreeWX-Wi 1.02,2013-05-14 23:24:00,
2013-05-14 19:29:00,52.9,15.1,30.03,North,-999,0.0,0.0,22,0.00,,,-99.99,FreeWX-Wi 1.02,2013-05-14 23:29:00,
2013-05-14 19:34:00,52.5,14.7,30.03,North,-999,0.0,0.0,22,0.00,,,-99.99,FreeWX-Wi 1.02,2013-05-14 23:34:00,
2013-05-14 19:39:00,52.2,14.5,30.03,North,-999,0.0,0.0,22,0.00,,,-99.99,FreeWX-Wi 1.02,2013-05-14 23:39:00,
2013-05-14 19:44:00,51.8,14.2,30.03,North,-999,0.0,0.0,22,0.00,,,-99.99,FreeWX-Wi 1.02,2013-05-14 23:44:00,
2013-05-14 19:49:00,51.6,15.1,30.03,North,-999,0.0,0.0,23,0.00,,,-99.99,FreeWX-Wi 1.02,2013-05-14 23:49:00,
2013-05-14 19:54:00,51.1,14.5,30.03,North,-999,0.0,0.0,23,0.00,,,-99.99,FreeWX-Wi 1.02,2013-05-14 23:54:00,
2013-05-14 19:59:00,50.7,14.4,30.03,North,-999,0.0,0.0,23,0.00,,,-99.99,FreeWX-Wi 1.02,2013-05-14 23:59:00,
2013-05-14 20:04:00,50.4,14.0,30.03,North,-999,0.0,0.0,23,0.00,,,-99.99,FreeWX-Wi 1.02,2013-05-15 00:04:00,
2013-05-14 20:09:00,50.2,13.8,30.03,North,-999,0.0,0.0,23,0.00,,,-99.99,FreeWX-Wi 1.02,2013-05-15 00:09:00,
2013-05-14 20:14:00,49.8,13.5,30.03,North,-999,0.0,0.0,23,0.00,,,-99.99,FreeWX-Wi 1.02,2013-05-15 00:14:00,
2013-05-14 20:19:00,49.5,13.3,30.03,North,-999,0.0,0.0,23,0.00,,,-99.99,FreeWX-Wi 1.02,2013-05-15 00:19:00,
2013-05-14 20:24:00,49.1,12.9,30.03,North,-999,0.0,0.0,23,0.00,,,-99.99,FreeWX-Wi 1.02,2013-05-15 00:24:00,
2013-05-14 20:29:00,48.7,12.6,30.03,North,-999,0.0,0.0,23,0.00,,,-99.99,FreeWX-Wi 1.02,2013-05-15 00:29:00,
2013-05-14 20:34:00,48.2,12.2,30.03,North,-999,0.0,0.0,23,0.00,,,-99.99,FreeWX-Wi 1.02,2013-05-15 00:34:00,
2013-05-14 20:39:00,48.0,12.0,30.03,North,-999,0.0,0.0,23,0.00,,,-99.99,FreeWX-Wi 1.02,2013-05-15 00:39:00,
2013-05-14 20:44:00,47.7,11.7,30.03,North,-999,0.0,0.0,23,0.00,,,-99.99,FreeWX-Wi 1.02,2013-05-15 00:44:00,
2013-05-14 20:49:00,47.3,11.5,30.03,North,-999,0.0,0.0,23,0.00,,,-99.99,FreeWX-Wi 1.02,2013-05-15 00:49:00,
2013-05-14 20:54:00,46.8,11.8,30.03,North,-999,0.0,0.0,24,0.00,,,-99.99,FreeWX-Wi 1.02,2013-05-15 00:54:00,
2013-05-14 20:59:00,46.4,11.7,30.03,North,-999,0.0,0.0,24,0.00,,,-99.99,FreeWX-Wi 1.02,2013-05-15 00:59:00,
2013-05-14 21:04:00,46.0,12.2,30.03,North,-999,0.0,0.0,25,0.00,,,-99.99,FreeWX-Wi 1.02,2013-05-15 01:04:00,
2013-05-14 21:09:00,45.9,13.8,30.03,North,-999,0.0,0.0,27,0.00,,,-99.99,FreeWX-Wi 1.02,2013-05-15 01:09:00,
2013-05-14 21:14:00,45.5,15.8,30.03,North,-999,0.0,0.0,30,0.00,,,-99.99,FreeWX-Wi 1.02,2013-05-15 01:14:00,
2013-05-14 21:19:00,45.1,15.6,30.06,North,-999,0.0,0.0,30,0.00,,,-99.99,FreeWX-Wi 1.02,2013-05-15 01:19:00,
2013-05-14 21:24:00,44.8,15.3,30.06,North,-999,0.0,0.0,30,0.00,,,-99.99,FreeWX-Wi 1.02,2013-05-15 01:24:00,
2013-05-14 21:29:00,44.6,18.7,30.06,North,-999,0.0,0.0,35,0.00,,,-99.99,FreeWX-Wi 1.02,2013-05-15 01:29:00,
2013-05-14 21:34:00,44.4,21.6,30.06,North,-999,0.0,0.0,40,0.00,,,-99.99,FreeWX-Wi 1.02,2013-05-15 01:34:00,
2013-05-14 21:39:00,44.1,23.0,30.06,North,-999,0.0,0.0,43,0.00,,,-99.99,FreeWX-Wi 1.02,2013-05-15 01:39:00,
2013-05-14 21:44:00,43.7,22.6,30.06,North,-999,0.0,0.0,43,0.00,,,-99.99,FreeWX-Wi 1.02,2013-05-15 01:44:00,
2013-05-14 21:49:00,43.5,23.0,30.06,North,-999,0.0,0.0,44,0.00,,,-99.99,FreeWX-Wi 1.02,2013-05-15 01:49:00,
2013-05-14 21:54:00,43.7,23.7,30.06,North,-999,0.0,0.0,45,0.00,,,-99.99,FreeWX-Wi 1.02,2013-05-15 01:54:00,
2013-05-14 21:59:00,43.2,23.4,30.06,North,-999,0.0,0.0,45,0.00,,,-99.99,FreeWX-Wi 1.02,2013-05-15 01:59:00,
2013-05-14 22:04:00,42.8,23.0,30.06,North,-999,0.0,0.0,45,0.00,,,-99.99,FreeWX-Wi 1.02,2013-05-15 02:04:00,
2013-05-14 22:09:00,42.6,23.4,30.06,North,-999,0.0,0.0,46,0.00,,,-99.99,FreeWX-Wi 1.02,2013-05-15 02:09:00,
2013-05-14 22:14:00,42.4,24.1,30.06,North,-999,0.0,0.0,48,0.00,,,-99.99,FreeWX-Wi 1.02,2013-05-15 02:14:00,
2013-05-14 22:19:00,42.6,24.8,30.06,North,-999,0.0,0.0,49,0.00,,,-99.99,FreeWX-Wi 1.02,2013-05-15 02:19:00,
2013-05-14 22:24:00,42.6,24.8,30.06,North,-999,0.0,0.0,49,0.00,,,-99.99,FreeWX-Wi 1.02,2013-05-15 02:24:00,
2013-05-14 22:29:00,42.6,25.7,30.06,North,-999,0.0,0.0,51,0.00,,,-99.99,FreeWX-Wi 1.02,2013-05-15 02:29:00,
2013-05-14 22:34:00,41.7,25.9,30.09,North,-999,0.0,0.0,53,0.00,,,-99.99,FreeWX-Wi 1.02,2013-05-15 02:34:00,
2013-05-14 22:39:00,41.4,26.1,30.09,North,-999,0.0,0.0,54,0.00,,,-99.99,FreeWX-Wi 1.02,2013-05-15 02:39:00,
2013-05-14 22:44:00,41.2,25.9,30.09,North,-999,0.0,0.0,54,0.00,,,-99.99,FreeWX-Wi 1.02,2013-05-15 02:44:00,
2013-05-14 22:49:00,41.2,26.2,30.06,North,-999,0.0,0.0,55,0.00,,,-99.99,FreeWX-Wi 1.02,2013-05-15 02:49:00,
2013-05-14 22:54:00,41.0,26.1,30.06,North,-999,0.0,0.0,55,0.00,,,-99.99,FreeWX-Wi 1.02,2013-05-15 02:54:00,
2013-05-14 22:59:00,40.8,25.9,30.06,North,-999,0.0,0.0,55,0.00,,,-99.99,FreeWX-Wi 1.02,2013-05-15 02:59:00,
2013-05-14 23:04:00,40.8,25.9,30.09,North,-999,0.0,0.0,55,0.00,,,-99.99,FreeWX-Wi 1.02,2013-05-15 03:04:00,
2013-05-14 23:09:00,41.0,26.6,30.09,North,-999,0.0,0.0,56,0.00,,,-99.99,FreeWX-Wi 1.02,2013-05-15 03:09:00,
2013-05-14 23:14:00,40.6,26.2,30.09,North,-999,0.0,0.0,56,0.00,,,-99.99,FreeWX-Wi 1.02,2013-05-15 03:14:00,
2013-05-14 23:19:00,40.6,26.2,30.09,North,-999,0.0,0.0,56,0.00,,,-99.99,FreeWX-Wi 1.02,2013-05-15 03:19:00,
2013-05-14 23:24:00,40.6,26.2,30.09,North,-999,0.0,0.0,56,0.00,,,-99.99,FreeWX-Wi 1.02,2013-05-15 03:24:00,
2013-05-14 23:29:00,40.6,26.6,30.09,North,-999,0.0,0.0,57,0.00,,,-99.99,FreeWX-Wi 1.02,2013-05-15 03:29:00,
2013-05-14 23:34:00,40.3,26.8,30.09,North,-999,0.0,0.0,58,0.00,,,-99.99,FreeWX-Wi 1.02,2013-05-15 03:34:00,
2013-05-14 23:39:00,39.9,26.8,30.09,North,-999,0.0,0.0,59,0.00,,,-99.99,FreeWX-Wi 1.02,2013-05-15 03:39:00,
2013-05-14 23:44:00,39.7,26.6,30.09,North,-999,0.0,0.0,59,0.00,,,-99.99,FreeWX-Wi 1.02,2013-05-15 03:44:00,
2013-05-14 23:49:00,39.9,26.8,30.09,North,-999,0.0,0.0,59,0.00,,,-99.99,FreeWX-Wi 1.02,2013-05-15 03:49:00,
2013-05-14 23:54:00,39.9,27.1,30.09,North,-999,0.0,0.0,60,0.00,,,-99.99,FreeWX-Wi 1.02,2013-05-15 03:54:00,
2013-05-14 23:59:00,39.7,27.0,30.09,North,-999,0.0,0.0,60,0.00,,,-99.99,FreeWX-Wi 1.02,2013-05-15 03:59:00,